Tracking 31027 objects as of 19-Jul-2025
HD Live streaming from Space Station
objects crossing your sky now

COSMOS 1375 DEB

Track COSMOS 1375 DEB now!
10-day predictions


NORAD ID: 17799
Int'l Code: 1982-055AR
Perigee: 892.9 km
Apogee: 938.7 km
Inclination: 65.8 °
Period: 103.2 minutes
Semi major axis: 7286 km
RCS: 0.043 m2 (small)
Launch date: June 6, 1982
Source: Commonwealth of Independent States (former USSR) (CIS)
Launch site: PLESETSK MISSILE AND SPACE COMPLEX (PKMTR)

Note: This is SATELLITE DEBRIS
Your satellite tracking list
CZ-2C R/B
Track 1 satellite(s)




NASA's NSSDC Master Catalog

Two Line Element Set (TLE):
1 17799U 82055AR  25199.09707934  .00000358  00000-0  32306-3 0  9991
2 17799  65.8371  92.9201 0031448 227.4091 244.1657 13.95727308 13191
Source of the keplerian elements: AFSPC